Regional Weather Roundup
Issued by NWS Sioux Falls, SD

Home | Current Version | Previous Version | Text Only | Print | Product List | Glossary On
Versions: 1 2 3 4 5 6 7 8 9 10 11 12 13 14 15 16 17 18 19 20 21 22 23 24 25 26 27 28 29 30 31 32 33 34 35 36 37 38 39 40 41 42 43 44 45 46 47 48 49 50
000
ASUS43 KFSD 212010
RWRFSD

WEATHER ROUNDUP FOR SE SOUTH DAKOTA/SW MINNESOTA/NW IOWA
NATIONAL WEATHER SERVICE SIOUX FALLS SD
300 PM CDT SUN SEP 21 2014

NOTE: "FAIR" INDICATES FEW OR NO CLOUDS BELOW 12,000 FEET WITH NO
SIGNIFICANT WEATHER AND OR OBSTRUCTIONS TO VISIBILITY.


SDZ038>040-050-052>070-212100-
SOUTHEAST SOUTH DAKOTA

CITY           SKY/WX    TMP DP  RH WIND       PRES   REMARKS
CHAMBERLAIN    SUNNY     71  42  34 N7        30.26F
HURON          MOSUNNY   71  44  37 N9        30.24F
MADISON        FAIR      66  45  45 N9G18     30.24F
MITCHELL       MOSUNNY   71  43  36 N13G22    30.25F
SIOUX FALLS    PTSUNNY   69  45  41 N13G23    30.23S
WINNER         FAIR      74  39  28 N13G22    30.27F
YANKTON        PTSUNNY   70  46  43 NW15      30.24F
$$

MNZ071-072-080-081-089-090-097-098-212100-
SOUTHWEST MINNESOTA

CITY           SKY/WX    TMP DP  RH WIND       PRES   REMARKS
FAIRMONT       CLOUDY    64  46  52 NW12      30.18S
JACKSON        CLOUDY    64  46  52 N12G20    30.21R
LUVERNE        PTSUNNY   70  43  37 N9        30.22S
MARSHALL       PTSUNNY   66  46  48 N17G23    30.20F
MONTEVIDEO     PTSUNNY   66  50  55 N14G20    30.22S
PIPESTONE      MOSUNNY   66  43  42 N8G18     30.22F
REDWOOD FALLS  CLOUDY    65  51  60 NW14G20   30.20S
TRACY          PTSUNNY   67  50  53 N13G18    30.22S
WINDOM         PTSUNNY   66  46  48 N20G28    30.21R
WORTHINGTON    CLOUDY    64  46  52 N15G22    30.22S
$$

IAZ001>003-012>014-020>022-031-032-NEZ013-014-SDZ071-212100-
NORTHWEST IOWA

CITY           SKY/WX    TMP DP  RH WIND       PRES   REMARKS
CHEROKEE       MOSUNNY   68  47  47 N12G22    30.20S
DENISON        MOSUNNY   68  48  49 N14G21    30.18S
ESTHERVILLE    CLOUDY    64  48  56 N17G24    30.19R
LE MARS        MOSUNNY   70  46  43 N10G22    30.21F
ORANGE CITY    SUNNY     70  45  40 N10       30.21F
SHELDON        MOSUNNY   68  46  45 NW14G20   30.20S
SIOUX CITY     MOSUNNY   72  49  44 NW16G25   30.21F
SPENCER        PTSUNNY   68  48  48 NW16G25   30.20S
$$

ABBREVIATIONS USED IN REMARKS
   TC - TEMPERATURE IN CELSIUS
  WCI - WIND CHILL INDEX
   HX - HEAT INDEX
  VSB - VISIBILITY



USA.gov is the U.S. government's official web portal to all federal, state and local government web resources and services.